Probability
3 3 2 1 0 0 0 0 0 0 0 0 0 0 0 0 0 0 0 0 0 0 0 0 0 0 0 0 0 0 0 0 0 0 0 0 0 0
3 3 3 1 1 0 0 0 0 0 0 0 0 0 0 0 0 0 0 0 0 0 0 0 0 0 0 0 0 0 0 0 0 0 0 0 0 0
3 3 3 3 2 1 1 0 0 0 0 0 0 0 0 0 0 0 0 0 0 0 0 0 0 0 0 0 0 0 0 0 0 0 0 0 0 0
3 3 3 3 3 3 2 1 1 0 0 0 0 0 0 0 0 0 0 0 0 0 0 0 0 0 0 0 0 0 0 0 0 0 0 0 0 0
3 3 3 3 3 3 3 3 2 1 0 0 0 0 0 0 0 0 0 0 0 0 0 0 0 0 0 0 0 0 0 0 0 0 0 0 0 0
3 3 3 3 3 3 3 3 3 2 1 0 0 0 0 0 0 0 0 0 0 0 0 0 0 0 0 0 0 0 0 0 0 0 0 0 0 0
2 3 3 3 3 2 2 2 2 2 1 0 0 0 0 0 0 0 0 0 0 0 0 0 0 0 0 0 0 0 0 0 0 0 0 0 0 0
1 2 3 3 1 1 1 1 0 1 1 0 0 0 0 0 0 0 0 0 0 0 0 0 0 0 0 0 0 0 0 0 0 0 0 0 0 0
0 1 2 2 1 0 0 0 0 0 0 0 0 0 0 0 0 0 0 0 0 0 0 0 0 0 0 0 0 0 0 0 0 0 0 0 0 0
0 0 1 1 0 0 0 0 0 0 0 0 0 0 0 0 0 0 0 0 0 0 0 0 0 0 0 0 0 0 0 0 0 0 0 0 0 0
0 0 0 0 0 0 0 0 0 0 0 0 0 0 0 0 0 0 0 0 0 0 0 0 0 0 0 0 0 0 0 0 0 0 0 0 0 0
0 0 0 0 0 0 0 0 0 0 0 0 0 0 0 0 0 0 0 0 0 0 0 0 0 0 0 0 0 0 0 0 0 0 0 0 0 0
0 0 0 0 0 0 0 0 0 0 0 0 0 0 0 0 0 0 0 0 0 0 0 0 0 0 0 0 0 0 0 0 0 0 0 0 0 0
0 0 0 0 0 0 0 0 0 0 0 0 0 0 0 0 0 0 0 0 0 0 0 0 0 0 0 0 0 0 0 0 0 0 0 0 0 0
0 0 0 0 0 0 0 0 0 0 0 0 0 0 0 0 0 0 0 0 0 0 0 0 0 0 0 0 0 0 0 0 0 0 0 0 0 0
0 0 0 0 0 0 0 0 0 0 0 0 0 0 0 0 0 0 0 0 0 0 0 0 0 0 0 0 0 0 0 0 0 0 0 0 0 0
0 0 0 0 0 0 0 0 0 0 0 0 0 0 0 0 0 0 0 0 0 0 0 0 0 0 0 0 0 0 0 0 0 0 0 0 0 0
0 0 0 0 0 0 0 0 0 0 0 0 0 0 0 0 0 0 0 0 0 0 0 0 0 0 0 0 0 0 0 0 0 0 0 0 0 0
0 0 0 0 0 0 0 0 0 0 0 0 0 0 0 0 0 0 0 0 0 0 0 0 0 0 0 0 0 0 0 0 0 0 0 0 0 0
0 0 0 0 0 0 0 0 0 0 0 0 0 0 0 0 0 0 0 0 0 0 0 0 0 0 0 0 0 0 0 0 0 0 0 0 0 0
0 0 0 0 0 0 0 0 0 0 0 0 0 0 0 0 0 0 0 0 0 0 0 0 0 0 0 0 0 0 0 0 0 0 0 0 0 0
0 0 0 0 0 0 0 0 0 0 0 0 0 0 0 0 0 0 0 0 0 0 0 0 0 0 0 0 0 0 0 0 0 0 0 0 0 0
0 0 0 0 0 0 0 0 0 0 0 0 0 0 0 0 0 0 0 0 0 0 0 0 0 0 0 0 0 0 0 0 0 0 0 0 0 0
Wind_Speed
6 7 6 5 5 5 5 5 6 7 7 4 3 2 2 2 3 4 4 3 4 5 6 7 7 7 8 8 9 9 10 11 11 11 12 13 13 13
5 6 6 5 5 5 5 5 6 7 7 4 3 2 2 2 3 4 4 5 5 5 6 7 7 7 8 8 9 9 10 11 11 11 12 13 13 13
6 6 7 6 5 5 5 5 5 6 8 6 4 3 4 4 3 4 4 5 4 4 6 6 7 7 7 8 9 9 10 10 11 11 12 13 13 13
6 6 7 5 6 5 5 6 6 6 6 8 5 4 4 4 5 5 4 4 4 4 5 6 6 7 8 8 9 9 9 10 10 11 12 12 12 13
6 6 6 6 6 5 5 5 5 5 5 6 5 4 3 3 4 4 5 4 4 4 5 6 7 7 8 9 9 9 9 10 10 11 11 11 12 12
5 5 6 6 6 5 4 5 5 5 5 5 5 4 3 3 3 3 4 4 4 4 4 5 6 6 7 8 8 8 9 9 10 11 11 11 12 12
3 3 4 4 4 4 4 5 5 4 4 4 5 4 3 2 3 3 5 4 4 2 3 4 4 4 5 6 6 8 9 10 10 10 10 11 11 12
4 3 3 2 2 3 4 4 4 5 5 5 5 5 4 4 3 3 4 3 4 1 4 5 3 4 4 4 6 8 8 9 10 10 10 10 11 12
3 3 2 1 2 2 2 3 3 3 4 5 6 5 5 4 4 4 4 4 5 3 3 5 3 5 4 4 7 9 9 9 9 9 9 11 12 13
3 3 3 2 1 1 2 2 2 3 3 4 4 4 3 3 3 4 4 4 4 2 2 4 3 4 5 5 6 8 9 9 9 9 10 12 13 13
3 3 3 3 1 2 2 2 2 2 2 2 2 2 3 3 2 1 2 2 3 2 1 3 3 4 5 4 4 7 8 9 10 11 11 12 13 13
2 2 2 2 2 2 3 3 3 2 1 1 2 3 3 3 3 2 2 2 2 3 1 2 3 3 4 3 4 4 5 8 10 11 12 12 13 9
3 3 2 2 3 2 3 2 2 1 1 1 1 2 2 2 2 3 3 3 3 3 1 2 3 3 4 5 5 4 5 6 6 7 9 12 13 11
3 3 2 3 3 2 1 1 0 1 1 1 0 1 2 2 3 3 3 3 4 4 3 3 3 4 4 5 6 5 5 5 6 6 6 10 10 12
3 3 3 3 2 1 1 1 0 0 0 1 1 1 1 2 3 3 3 3 3 3 3 3 4 4 5 6 6 6 6 6 5 6 6 7 7 7
2 1 2 1 1 1 1 1 1 1 1 1 1 1 2 2 2 2 3 3 3 3 2 3 4 5 5 7 6 7 6 6 6 7 7 8 7 7
2 1 1 1 0 0 1 1 1 1 1 1 1 1 2 2 2 2 3 3 3 4 4 4 4 5 6 6 6 6 6 7 7 7 7 8 8 7
2 2 2 1 1 1 1 0 1 1 1 1 1 1 2 2 3 3 3 3 4 4 4 4 5 4 3 3 5 6 6 6 7 7 7 8 9 8
2 2 2 2 2 1 1 1 1 1 1 1 1 1 2 2 2 3 3 3 4 4 4 4 3 3 5 6 4 3 5 6 7 7 7 7 9 9
2 2 2 2 2 2 1 1 1 1 1 1 1 1 2 2 2 3 3 4 4 5 5 4 3 3 5 6 6 6 7 7 6 7 8 8 8 11
2 2 2 2 2 1 1 1 1 2 2 2 2 2 2 2 3 3 4 5 5 4 5 5 4 6 5 4 6 6 6 7 8 7 8 8 9 8
2 2 2 2 2 2 2 2 2 2 2 2 2 2 2 2 3 4 4 4 4 5 6 5 5 4 3 4 6 7 8 8 8 10 11 10 8 7
2 2 2 2 2 2 2 2 3 3 2 2 2 2 2 3 3 3 4 4 4 5 5 5 5 4 4 5 6 7 9 9 7 7 7 9 13 15
Wind_Direction
235 238 240 243 244 245 246 244 250 263 262 250 243 222 249 265 292 282 285 306 292 292 299 303 301 300 300 298 297 298 298 297 298 299 298 297 297 296
235 235 237 241 242 243 244 245 244 254 263 264 258 257 243 255 273 277 280 286 271 284 296 298 298 300 300 299 298 298 299 299 300 300 300 299 299 299
236 236 241 240 240 241 243 247 248 250 258 268 269 267 258 262 278 282 283 283 280 277 290 295 297 301 304 301 300 300 299 300 302 303 303 303 303 301
243 241 244 242 241 244 243 245 248 249 255 265 268 265 260 271 279 281 286 287 287 294 293 295 298 300 298 296 299 302 303 302 301 301 302 301 301 301
249 248 249 248 249 248 249 251 253 256 255 259 266 269 268 278 283 282 286 287 290 297 291 286 290 295 295 295 297 301 302 301 299 301 303 302 302 302
255 254 252 247 249 251 253 257 256 253 252 253 259 262 263 276 274 279 283 286 288 296 291 295 293 290 291 293 296 299 301 303 304 305 306 305 304 304
259 254 256 260 261 261 258 257 253 253 253 252 256 258 256 266 268 276 276 290 286 290 299 298 299 296 296 294 297 303 306 307 308 308 309 308 307 308
266 258 251 252 265 263 262 262 258 253 255 256 257 258 265 267 277 278 282 289 287 312 304 293 291 285 291 294 302 302 302 306 309 310 311 312 311 311
262 258 248 247 251 264 263 254 260 264 254 257 258 263 267 265 263 262 265 270 275 301 297 282 287 283 291 289 295 296 300 302 302 307 313 314 312 310
267 265 256 252 255 264 273 276 287 284 267 255 257 268 280 286 273 268 271 276 281 285 284 278 291 293 299 287 282 289 300 306 308 312 314 315 314 311
275 271 262 256 258 230 226 246 277 314 8 13 338 329 332 327 306 274 283 281 283 284 297 283 299 307 293 280 287 295 305 312 312 311 312 314 315 313
282 275 265 268 271 235 232 224 237 268 309 346 358 356 346 348 345 301 269 262 281 280 311 303 299 316 298 280 294 300 304 307 309 309 310 313 316 314
275 272 272 278 281 263 250 248 240 243 243 256 315 340 344 340 336 330 312 279 265 263 281 302 288 291 281 293 293 293 301 307 306 303 305 311 313 313
277 284 288 290 290 293 287 322 191 158 189 228 279 317 323 324 327 326 322 309 291 279 282 277 267 271 280 284 287 298 304 304 304 303 305 306 304 304
288 299 306 311 307 310 44 354 350 127 187 231 266 296 312 310 314 316 319 310 297 289 291 284 276 274 268 270 283 292 302 300 296 303 305 304 303 304
302 313 320 340 15 39 28 25 20 3 298 279 306 318 319 317 317 319 312 317 305 301 302 293 284 276 268 272 274 283 290 292 301 307 305 300 297 295
293 283 271 279 309 6 17 22 16 15 0 348 329 315 311 317 321 325 311 305 294 297 307 317 306 284 266 266 274 279 288 294 299 307 305 299 296 296
262 240 238 234 232 238 243 310 327 330 334 318 302 301 307 313 314 317 309 297 295 299 305 315 322 314 294 260 248 278 290 298 304 305 302 297 296 300
243 231 230 234 239 240 239 249 267 293 304 284 280 286 295 299 301 303 302 298 296 297 301 306 310 305 297 296 291 265 295 302 303 301 298 295 294 299
230 226 233 237 236 239 244 252 259 261 259 264 271 278 280 281 285 291 293 294 296 298 299 300 300 297 281 286 291 288 289 291 295 298 302 302 295 295
236 233 236 236 239 242 246 250 251 251 250 255 256 260 264 268 274 282 286 288 287 287 291 296 304 300 284 275 275 283 289 293 296 293 301 302 305 303
238 235 234 232 234 233 234 235 241 242 240 245 250 254 261 265 268 275 281 286 286 286 288 294 304 299 281 274 282 292 300 309 307 300 291 286 293 297
238 234 233 228 227 227 229 231 237 243 243 246 250 256 260 265 273 278 282 282 286 290 294 298 301 295 284 279 284 290 298 308 312 314 308 309 300 292